This is the latest recevied weather packets stored in our database for station/object DL3APY-11. If no packets are shown the sender has not sent any weather packets the latest 10 day(s).
| Time | Temp. | Humidity | Pressure | Rain* | Wind** | Luminosity | Snow |
|---|---|---|---|---|---|---|---|
| 1778135124 | 24.44° C | 41% | 1015.8 hPa | - | - | - | - |
| 1778135002 | 24.44° C | 41% | 1014.8 hPa | - | - | - | - |
| 1778134881 | 24.44° C | 41% | 1014.8 hPa | - | - | - | - |
| 1778134760 | 24.44° C | 40% | 1013.7 hPa | - | - | - | - |
| 1778134518 | 24.44° C | 40% | 1013.7 hPa | - | - | - | - |
| 1778134397 | 24.44° C | 40% | 1012.7 hPa | - | - | - | - |
| 1778134276 | 24.44° C | 40% | 1010.6 hPa | - | - | - | - |
| 1778133953 | 25° C | 40% | 1011.5 hPa | - | - | - | - |
| 1778133749 | 25° C | 40% | 1010.5 hPa | - | - | - | - |
| 1778133628 | 25° C | 40% | 1012.5 hPa | - | - | - | - |
| 1778133507 | 25° C | 40% | 1011.4 hPa | - | - | - | - |
| 1778133408 | 25° C | 40% | 1013.4 hPa | - | - | - | - |
| 1778132462 | 25° C | 40% | 1013.2 hPa | - | - | - | - |
| 1778132341 | 25° C | 40% | 1013.2 hPa | - | - | - | - |
| 1778132099 | 25° C | 40% | 1015.1 hPa | - | - | - | - |
| 1778132000 | 25° C | 40% | 1014.1 hPa | - | - | - | - |
| 1778131879 | 25° C | 40% | 1014.1 hPa | - | - | - | - |
| 1778131758 | 25° C | 40% | 1013 hPa | - | - | - | - |
| 1778131660 | 25° C | 40% | 1014 hPa | - | - | - | - |
| 1778131418 | 24.44° C | 41% | 1016 hPa | - | - | - | - |
| 1778131298 | 24.44° C | 41% | 1014 hPa | - | - | - | - |
| 1778130572 | 23.33° C | 42% | 1011.8 hPa | - | - | - | - |
| 1778130209 | 22.78° C | 44% | 1009.7 hPa | - | - | - | - |
| 1778130088 | 22.22° C | 44% | 1010.7 hPa | - | - | - | - |
| 1778129967 | 22.22° C | 44% | 1010.7 hPa | - | - | - | - |
* Rain since midnight (hover to see other rain measurements)
** Current wind speed in m/s (hover to see current wind gust speed)